Printer-friendly version

IAU Minor Planet Center

Minor Planet Center

MPEC 2006-C47 : 2006 CN10

The following Minor Planet Electronic Circular may be linked-to from your own Web pages, but must not otherwise be redistributed electronically.


Read MPEC 2006-C46 Read MPEC 2006-C48


M.P.E.C. 2006-C47                                Issued 2006 Feb. 8, 12:48 UT

     The Minor Planet Electronic Circulars contain information on unusual
         minor planets and routine data on comets.  They are published
   on behalf of Commission 20 of the International Astronomical Union by the
          Minor Planet Center, Smithsonian Astrophysical Observatory,
                          Cambridge, MA 02138, U.S.A.

                  Supported in part by the Brinson Foundation
                  Supported in part by the TABASGO Foundation
             Prepared using the Tamkin Foundation Computer Network

                              MPC@CFA.HARVARD.EDU
          URL http://cfa-www.harvard.edu/iau/mpc.html  ISSN 1523-6714

                                   2006 CN10

Observations:
     K06C10N* C2006 02 07.30057 09 50 02.83 +06 13 54.2          19.2 V EC047703
     K06C10N  C2006 02 07.30696 09 50 03.51 +06 13 46.8          19.0 V EC047703
     K06C10N  C2006 02 07.31340 09 50 04.09 +06 13 38.7          18.6 V EC047703
     K06C10N  C2006 02 07.31982 09 50 04.74 +06 13 33.0          18.7 V EC047703
     K06C10N  C2006 02 07.32758 09 50 05.56 +06 13 24.7          18.9 V EC047703
     K06C10N  C2006 02 07.33442 09 50 06.36 +06 13 18.1          18.4 V EC047703
     K06C10N  C2006 02 07.34124 09 50 06.86 +06 13 12.0          18.2 V EC047703
     K06C10N  C2006 02 07.95292 09 51 15.66 +06 01 50.8                 EC047595
     K06C10N  C2006 02 07.97236 09 51 17.71 +06 01 28.7          18.9 V EC047595
     K06C10N  C2006 02 08.15710 09 51 37.35 +05 57 58.8                 EC047J95
     K06C10N  C2006 02 08.15920 09 51 37.53 +05 57 56.4          18.5 R EC047J95
     K06C10N 5C2006 02 08.20336 09 51 45.55 +05 57 16.4          19.2 R EC047673
     K06C10N  C2006 02 08.20438 09 51 44.24 +05 57 12.2          19.0 R EC047932
     K06C10N 5C2006 02 08.20961 09 51 46.24 +05 57 09.1                 EC047673
     K06C10N  C2006 02 08.21371 09 51 45.17 +05 57 01.8          19.0 R EC047932
     K06C10N 5C2006 02 08.22222 09 51 47.55 +05 56 55.4                 EC047673
     K06C10N  C2006 02 08.22301 09 51 46.13 +05 56 51.3          18.9 R EC047932
     K06C10N 5C2006 02 08.23044 09 51 48.42 +05 56 46.4                 EC047673
     K06C10N  C2006 02 08.23129 09 51 46.95 +05 56 41.8          19.0 R EC047932
     K06C10N  C2006 02 08.30230 09 51 55.51 +05 55 26.8          19.1 V EC047703
     K06C10N  C2006 02 08.30727 09 51 56.04 +05 55 22.5          18.7 V EC047703
     K06C10N  C2006 02 08.32720 09 51 58.10 +05 55 00.4          18.1 V EC047703
     K06C10N  C2006 02 08.34516 09 51 59.90 +05 54 39.6          18.9 V EC047703
     K06C10N  C2006 02 08.34806 09 52 00.19 +05 54 36.3          18.5 V EC047703
     K06C10N  C2006 02 08.35097 09 52 00.51 +05 54 33.4          18.9 V EC047703
     K06C10N  C2006 02 08.35384 09 52 00.76 +05 54 29.6          18.8 V EC047703

Observer details:
595 Farra d'Isonzo.  Observers M. Spolaor, G. Lombardi, E. Pettarin.
    Measurers M. Spolaor, E. Pettarin.  0.40-m f/4.5 reflector + CCD.
673 Table Mountain Observatory, Wrightwood.  Observer J. Young.  0.6-m f/16
    Cassegrain + CCD.
703 Catalina Sky Survey.  Observers E. C. Beshore, R. Hill.  Measurers
    E. C. Beshore, E. J. Christensen, G. J. Garradd, A. D. Grauer, R. E. Hill,
    R. A. Kowalski, S. M. Larson, R. H. McNaught.  0.68-m Schmidt + CCD.
932 John J. McCarthy Obs., New Milford.  Observer W. Cloutier.  Measurer
    M. Robson.  0.4-m f/6.5 Schmidt-Cassegrain + CCD.
J95 Great Shefford.  Observer P. Birtwhistle.  0.40-m f/6.0 Schmidt-Cassegrain
    + CCD.

Orbital elements:
2006 CN10                                                Earth MOID = 0.1012 AU
Epoch 2006 Mar. 6.0 TT = JDT 2453800.5                  MPC
M 356.82443              (2000.0)            P               Q
n   0.21936187     Peri.  312.56382     -0.99941171     +0.03026892
a   2.7228807      Node   229.17739     -0.02173514     -0.92269977
e   0.5972312      Incl.    1.22102     -0.02652961     -0.38432920
P   4.49           H   21.1           G   0.15           U   8
Residuals in seconds of arc
060207 703  1.2-  0.0     060208 J95  0.3+  0.3-    060208 932  0.3-  0.2-
060207 703  0.3-  0.5-    060208 J95  0.3-  0.3-    060208 703  0.8-  0.8-
060207 703  1.0-  1.6-    060208 673  0.1+  0.4+    060208 703  0.4-  0.4+
060207 703  0.5-  0.3-    060208 932  0.2+  0.1+    060208 703  0.3+  0.7+
060207 703  0.5+  0.2-    060208 673  0.5+  0.0     060208 703  0.2+  0.1+
060207 703  2.6+  0.7+    060208 932  0.1-  0.1+    060208 703  0.1+  0.0
060207 703  0.2+  2.0+    060208 673  0.1+  0.2+    060208 703  0.5+  0.4+
060207 595  0.8-  0.8+    060208 932  0.0   0.0     060208 703  0.1-  0.2-
060207 595  0.2+  0.2+    060208 673  0.3+  0.3+

Ephemeris:
2006 CN10                a,e,i = 2.72, 0.60, 1                   q = 1.0967
Date    TT    R. A. (2000) Decl.     Delta      r     Elong.  Phase     V
2006 02 04    09 44.34   +07 10.9    0.248    1.229   167.5    10.0    19.2
2006 02 14    10 04.24   +03 58.2    0.194    1.179   170.1     8.3    18.5
2006 02 24    10 35.22   -00 34.7    0.152    1.139   169.6     9.0    17.9
2006 03 06    11 23.69   -06 50.9    0.123    1.112   166.5    12.0    17.5
2006 03 16    12 32.04   -14 02.7    0.110    1.098   159.8    18.2    17.4
2006 03 26    13 46.77   -19 27.1    0.113    1.099   152.3    24.9    17.7
2006 04 05    14 46.26   -21 38.4    0.131    1.114   148.9    27.6    18.1
2006 04 15    15 23.55   -21 48.1    0.158    1.143   150.6    25.5    18.5
2006 04 25    15 43.22   -21 11.1    0.192    1.184   156.1    20.1    18.9
2006 05 05    15 51.73   -20 23.6    0.234    1.235   164.1    12.9    19.2
2006 05 15    15 54.52   -19 41.7    0.285    1.294   173.3     5.2    19.4
2006 05 25    15 55.17   -19 11.3    0.347    1.359   176.9     2.3    19.7
2006 06 04    15 56.04   -18 54.9    0.422    1.429   167.6     8.8    20.6
2006 06 14    15 58.47   -18 52.2    0.510    1.502   158.6    14.3    21.3
2006 06 24    16 02.87   -19 01.0    0.613    1.578   150.1    18.7    22.0

Timothy B. Spahr             (C) Copyright 2006 MPC           M.P.E.C. 2006-C47

Read MPEC 2006-C46 Read MPEC 2006-C48


Our Web policy. Index to the CBAT/MPC/ICQ pages.


Valid HTML 4.01!